Romeoville, IL

12:53 PM CDT on July 22, 2017 (GMT -0500)
Lewis University

Weather History for KLOT - April, 2014

Change the Weather History Date:

Thursday, April 3, 2014

  Actual Average Record
Temperature  
Mean Temperature 39 °F 46 °F  
Max Temperature 42 °F 56 °F 79 °F (2012)
Min Temperature 36 °F 35 °F 22 °F (2013)
Degree Days  
Heating Degree Days 26 19  
Month to date heating degree days 71 59  
Since 1 July heating degree days 6725 5604  
Cooling Degree Days 0 0  
Month to date cooling degree days 0 0  
Year to date cooling degree days 0 0  
Moisture  
Dew Point 38 °F    
Average Humidity 96    
Maximum Humidity 100    
Minimum Humidity 72    
Precipitation  
Precipitation 1.53 in 0.11 in 1.53 in (2014)
Month to date precipitation 1.53 0.31  
Year to date precipitation 8.50 6.79  
Snow  
Snow 0.00 in 0.00 in 0.00 in (2011)
Month to date snowfall 0.0 0.1  
Since 1 July snowfall 75.7 31.9  
Snow Depth 0.00 in    
Sea Level Pressure  
Sea Level Pressure 29.83 in    
Wind  
Wind Speed 14 mph (ENE)    
Max Wind Speed 20 mph    
Max Gust Speed 26 mph    
Visibility 6 miles    
Events Rain    
T = Trace of Precipitation, MM = Missing Value Source: NWS Daily Summary

Daily Weather History Graph

Daily Weather History Graph

Search for Another Location

Airport or City:

Trip Planner

Search our weather history database for the weather conditions in past years. The results will help you decide how hot, cold, wet, or windy it might be!

Date:

Astronomy

Apr. 03, 2014 Rise Set
Actual Time 6:31 AM CDT 7:19 PM CDT
Civil Twilight 6:03 AM CDT 7:48 PM CDT
Nautical Twilight 5:30 AM CDT 8:21 PM CDT
Astronomical Twilight 4:56 AM CDT 8:56 PM CDT
Moon 8:58 AM CDT (4/3) 11:42 PM CDT (4/3)
Length of Visible Light 13h 44m
Length of Day
12h 47m
Waxing Crescent, 17% of the Moon is Illuminated
Apr 3
Waxing Crescent
Apr 7
First Quarter
Apr 15
Full
Apr 22
Last Quarter
Apr 29
New

Hourly Weather History & Observations

Time (CDT) Temp. Windchill Dew Point Humidity Pressure Visibility Wind Dir Wind Speed Gust Speed Precip Events Conditions
12:15 AM 38.3 °F 30.9 °F 30.0 °F 72% 30.04 in 10.0 mi ENE 11.5 mph - N/A   Light Drizzle
12:35 AM 37.8 °F 29.8 °F 31.3 °F 77% 30.01 in 10.0 mi ENE 12.7 mph - N/A   Overcast
12:55 AM 38.3 °F 29.7 °F 32.0 °F 78% 29.99 in 10.0 mi ENE 15.0 mph - N/A   Overcast
1:15 AM 38.3 °F 30.9 °F 32.0 °F 78% 30.03 in 10.0 mi NE 11.5 mph - N/A Rain Rain
1:35 AM 37.4 °F 28.9 °F 32.9 °F 84% 30.00 in 4.0 mi East 13.8 mph - 0.07 in Rain Rain
1:55 AM 36.9 °F 27.5 °F 34.0 °F 89% 29.97 in 5.0 mi ENE 16.1 mph - 0.16 in Rain Light Rain
2:15 AM 37.4 °F 28.5 °F 35.8 °F 94% 29.96 in 10.0 mi ENE 15.0 mph 21.9 mph 0.01 in Rain Light Rain
2:35 AM 38.5 °F 29.2 °F 35.1 °F 87% 29.95 in 10.0 mi ENE 17.3 mph - 0.01 in Rain Light Rain
2:55 AM 39.2 °F 31.2 °F 35.6 °F 87% 29.95 in 10.0 mi ENE 13.8 mph - 0.01 in   Overcast
3:15 AM 39.6 °F 31.0 °F 36.0 °F 87% 29.93 in 10.0 mi East 16.1 mph 21.9 mph N/A   Overcast
3:35 AM 40.3 °F 31.9 °F 36.5 °F 86% 29.92 in 10.0 mi East 16.1 mph 20.7 mph N/A   Overcast
3:55 AM 41.0 °F 32.2 °F 36.5 °F 84% 29.91 in 10.0 mi East 18.4 mph 26.5 mph N/A   Overcast
4:15 AM 41.5 °F 33.8 °F 36.7 °F 83% 29.90 in 10.0 mi ENE 15.0 mph 23.0 mph N/A   Overcast
4:35 AM 41.4 °F 32.7 °F 37.4 °F 86% 29.88 in 7.0 mi East 18.4 mph 23.0 mph N/A Rain Light Rain
4:55 AM 41.0 °F 32.2 °F 37.4 °F 87% 29.87 in 7.0 mi East 18.4 mph - N/A Rain Light Rain
5:15 AM 41.5 °F 35.0 °F 38.7 °F 89% 29.92 in 5.0 mi ESE 11.5 mph 23.0 mph 0.04 in Rain Rain
5:35 AM 41.5 °F 39.6 °F 38.8 °F 90% 29.92 in 4.0 mi East 3.5 mph - 0.11 in Rain Heavy Rain
5:55 AM 41.4 °F 33.3 °F 40.8 °F 98% 29.90 in 3.0 mi East 16.1 mph - 0.22 in Rain Rain
6:15 AM 41.0 °F 32.5 °F 41.0 °F 100% 29.86 in 2.5 mi East 17.3 mph 21.9 mph 0.10 in Rain Light Rain
6:35 AM 41.2 °F 32.7 °F 41.2 °F 100% 29.85 in 3.0 mi East 17.3 mph - 0.20 in Rain Rain
6:55 AM 41.0 °F 32.8 °F 41.0 °F 100% 29.87 in 5.0 mi East 16.1 mph 25.3 mph 0.22 in Rain Light Rain
7:15 AM 41.0 °F 34.7 °F 41.0 °F 100% 29.88 in 4.0 mi ENE 10.4 mph - 0.05 in Rain Rain
7:35 AM 40.5 °F 34.1 °F 40.5 °F 100% 29.89 in 4.0 mi ENE 10.4 mph - 0.11 in Rain Rain
7:55 AM 40.1 °F 33.2 °F 40.1 °F 100% 29.87 in 3.0 mi ENE 11.5 mph - 0.19 in Rain Rain
8:15 AM 39.9 °F 32.1 °F 39.9 °F 100% 29.86 in 3.0 mi East 13.8 mph - 0.06 in Rain Rain
8:35 AM 40.1 °F 31.6 °F 40.1 °F 100% 29.85 in 2.5 mi East 16.1 mph 21.9 mph 0.15 in Rain Rain
8:55 AM 40.5 °F 32.8 °F 40.5 °F 100% 29.86 in 3.0 mi East 13.8 mph - 0.22 in Rain Light Rain
9:15 AM 40.5 °F 34.1 °F 40.5 °F 100% 29.87 in 4.0 mi East 10.4 mph - 0.02 in Rain Rain
9:35 AM 40.5 °F 32.1 °F 40.5 °F 100% 29.84 in 4.0 mi East 16.1 mph - 0.05 in Rain Light Rain
9:55 AM 41.0 °F 32.8 °F 41.0 °F 100% 29.82 in 4.0 mi East 16.1 mph - 0.06 in Rain Light Rain
10:15 AM 41.2 °F 32.4 °F 41.2 °F 100% 29.80 in 4.0 mi ENE 18.4 mph - 0.01 in Rain Light Rain
10:35 AM 41.2 °F 33.0 °F 41.2 °F 100% 29.82 in 7.0 mi East 16.1 mph 21.9 mph 0.01 in   Light Drizzle
10:55 AM 41.5 °F 32.9 °F 41.5 °F 100% 29.79 in 7.0 mi ESE 18.4 mph - 0.01 in   Overcast
11:15 AM 41.0 °F 32.5 °F 41.0 °F 100% 29.78 in 7.0 mi East 17.3 mph 26.5 mph N/A   Overcast
11:35 AM 41.2 °F 32.4 °F 41.2 °F 100% 29.79 in 7.0 mi ESE 18.4 mph - N/A   Overcast
11:55 AM 41.0 °F 31.9 °F 41.0 °F 100% 29.77 in 7.0 mi East 19.6 mph - N/A   Overcast
12:15 PM 40.6 °F 33.4 °F 40.6 °F 100% 29.79 in 7.0 mi ENE 12.7 mph - N/A   Overcast
12:35 PM 40.3 °F 33.9 °F 40.3 °F 100% 29.80 in 7.0 mi NE 10.4 mph - N/A   Overcast
12:55 PM 39.9 °F 33.9 °F 39.6 °F 99% 29.80 in 10.0 mi NE 9.2 mph - N/A   Overcast
1:15 PM 40.5 °F 33.2 °F 40.1 °F 99% 29.79 in 7.0 mi NNE 12.7 mph - N/A   Overcast
1:35 PM 40.1 °F 32.4 °F 39.4 °F 97% 29.79 in 10.0 mi NE 13.8 mph - N/A   Overcast
1:55 PM 40.1 °F 32.7 °F 39.2 °F 97% 29.77 in 10.0 mi NE 12.7 mph - N/A   Overcast
2:15 PM 40.1 °F 32.4 °F 38.8 °F 95% 29.76 in 10.0 mi NE 13.8 mph - N/A   Overcast
2:35 PM 39.4 °F 30.7 °F 38.3 °F 96% 29.74 in 10.0 mi NE 16.1 mph - N/A   Overcast
2:55 PM 39.0 °F 31.4 °F 38.8 °F 99% 29.77 in 4.0 mi NE 12.7 mph - N/A   Overcast
3:15 PM 39.2 °F 31.2 °F 39.2 °F 100% 29.78 in 5.0 mi NE 13.8 mph - N/A   Overcast
3:35 PM 38.7 °F 30.1 °F 37.8 °F 97% 29.77 in 10.0 mi NE 15.0 mph - N/A   Overcast
3:55 PM 37.9 °F 29.2 °F 37.0 °F 97% 29.77 in 10.0 mi NE 15.0 mph - N/A   Overcast
4:15 PM 37.4 °F 28.2 °F 36.7 °F 97% 29.76 in 10.0 mi NE 16.1 mph - N/A   Overcast
4:35 PM 37.2 °F 28.7 °F 36.7 °F 98% 29.77 in 7.0 mi ENE 13.8 mph - N/A   Overcast
4:55 PM 36.9 °F 28.2 °F 36.5 °F 99% 29.78 in 7.0 mi ENE 13.8 mph - N/A   Overcast
5:15 PM 36.7 °F 28.4 °F 36.0 °F 97% 29.79 in 7.0 mi ENE 12.7 mph - N/A   Overcast
5:35 PM 36.5 °F 29.2 °F 35.8 °F 97% 29.79 in 7.0 mi NE 10.4 mph - N/A   Overcast
5:55 PM 36.5 °F 27.8 °F 36.3 °F 99% 29.79 in 7.0 mi ENE 13.8 mph 17.3 mph N/A   Overcast
6:15 PM 36.3 °F 29.5 °F 36.3 °F 100% 29.81 in 4.0 mi ENE 9.2 mph - N/A   Overcast
6:35 PM 36.5 °F 30.3 °F 36.5 °F 100% 29.81 in 2.5 mi ENE 8.1 mph - N/A   Overcast
6:55 PM 36.5 °F 30.3 °F 36.5 °F 100% 29.80 in 2.0 mi ENE 8.1 mph - N/A   Overcast
7:15 PM 36.5 °F 30.3 °F 36.5 °F 100% 29.79 in 2.5 mi ENE 8.1 mph - N/A   Overcast
7:35 PM 37.4 °F 29.8 °F 37.4 °F 100% 29.77 in 2.5 mi ENE 11.5 mph - N/A   Overcast
7:55 PM 36.5 °F 28.2 °F 36.5 °F 100% 29.76 in 2.0 mi ENE 12.7 mph - N/A   Overcast
8:15 PM 36.9 °F 29.1 °F 36.9 °F 100% 29.77 in 2.0 mi ENE 11.5 mph - N/A   Overcast
8:35 PM 37.0 °F 28.9 °F 37.0 °F 100% 29.75 in 1.8 mi ENE 12.7 mph - N/A   Overcast
8:55 PM 37.0 °F 30.4 °F 37.0 °F 100% 29.74 in 1.5 mi ENE 9.2 mph - N/A   Overcast
9:15 PM 37.4 °F 30.8 °F 37.4 °F 100% 29.72 in 1.2 mi East 9.2 mph - N/A   Overcast
9:35 PM 37.6 °F 31.6 °F 37.6 °F 100% 29.70 in 1.0 mi East 8.1 mph - N/A   Overcast
10:55 PM 39.2 °F 31.6 °F 39.2 °F 100% 29.66 in 3.0 mi East 12.7 mph - N/A   Overcast
11:15 PM 39.4 °F 35.2 °F 39.4 °F 100% 29.68 in 3.0 mi ESE 5.8 mph - N/A   Overcast
11:35 PM 39.6 °F 33.5 °F 39.6 °F 100% 29.66 in 4.0 mi East 9.2 mph - N/A   Overcast
11:55 PM 39.6 °F 32.5 °F 39.6 °F 100% 29.65 in 4.0 mi ESE 11.5 mph - N/A   Overcast